Regional Weather Roundup
Issued by NWS Sterling, VA

Home | Current Version | Previous Version | Text Only | Print | Product List | Glossary On
Versions: 1 2 3 4 5 6 7 8 9 10 11 12 13 14 15 16 17 18 19 20 21 22 23 24 25 26 27 28 29 30 31 32 33 34 35 36 37 38 39 40 41 42 43 44 45 46 47 48 49 50
700
ASUS41 KLWX 210011
RWRLWX

REGIONAL WEATHER ROUNDUP
NATIONAL WEATHER SERVICE BALTIMORE MD/WASHINGTON DC
800 PM EDT FRI OCT 20 2017

Note: "FAIR" indicates few or no clouds below 12,000 feet
with no significant weather and/or obstructions to visibility.
 TC=TEMPERATURE CELSIUS

 * =Non NWS site. Station does not report precipitation (e.g. rain,
    snow, etc.), thunder, or fog.

DCZ001-MDZ009-015-VAZ040>042-051-053>054-210100-
WASHINGTON METRO

CITY           SKY/WX    TMP DP  RH WIND       PRES   REMARKS
WASHINGTON NAT PTCLDY    66  51  58 NE3       30.22R
DULLES         PTCLDY    58  47  66 CALM      30.22R
ANDREWS AFB    CLEAR     60  48  63 CALM      30.21R
FT BELVOIR     CLEAR     56  50  79 CALM      30.21S
QUANTICO       CLEAR     60  54  80 NW7       30.22S
COLLEGE PARK*  CLEAR     57  50  77 CALM      30.22R
LEESBURG*      CLEAR     59  52  77 NW3       30.24R
MANASSAS*      CLEAR     56  46  69 CALM      30.22R
GAITHERSBURG*  CLEAR     55  48  77 CALM      30.23R

$$

MDZ006>007-011-014-210100-
BALTIMORE METRO

CITY           SKY/WX    TMP DP  RH WIND       PRES   REMARKS
BWI AIRPORT    PTCLDY    58  48  69 VRB5      30.21R
MD SCIENCE CTR   N/A     70  41  34 MISG      30.21R
MARTIN STATE   CLEAR     59  52  77 CALM      30.23R
ANNAPOLIS      CLEAR     63  57  81 CALM      30.21R
FORT MEADE*    CLEAR     54  50  87 CALM      30.24R

$$

MDZ012-015-019>023-210100-
MARYLAND EASTERN SHORE

CITY           SKY/WX    TMP DP  RH WIND       PRES   REMARKS
OCEAN CITY     CLEAR     56  55  97 CALM      30.20S
SALISBURY      CLEAR     58  49  72 CALM      30.20R
CAMBRIDGE*     CLEAR     57  54  88 CALM      30.21R
EASTON*        CLEAR     59  48  67 CALM      30.24R

$$

MDZ017>025-210100-
SOUTHERN MARYLAND

CITY           SKY/WX    TMP DP  RH WIND       PRES   REMARKS
PATUXENT RIVER PTCLDY    57  54  89 SW3       30.21R
ST INIGOES       N/A     56  53  90 CALM      30.20R
LEONARDTOWN*   NOT AVBL

$$

MDZ003>005-210100-
NORTH CENTRAL MARYLAND

CITY           SKY/WX    TMP DP  RH WIND       PRES   REMARKS
FREDERICK*     CLEAR     57  46  67 CALM      30.25R
HAGERSTOWN APT CLEAR     67  36  31 E3        30.23R
WESTMINSTER*   CLEAR     63  45  51 CALM      30.23R

$$

MDZ501>502-210100-
WESTERN MARYLAND

CITY           SKY/WX    TMP DP  RH WIND       PRES   REMARKS
OAKLAND*       CLEAR     55  34  44 NW3       30.27R
CUMBERLAND*    CLEAR     63  41  45 NW5       30.27R

$$

VAZ025>031-210100-
SHENANDOAH VALLEY

CITY           SKY/WX    TMP DP  RH WIND       PRES   REMARKS
WINCHESTER*    CLEAR     54  45  71 CALM      30.24R
FRONT ROYAL*   CLEAR     59  45  58 CALM      30.23R
LURAY*         CLEAR     59  46  63 E5        30.23S
NEW MARKET*    CLEAR     56  45  65 CALM      30.23R
STAUNTON*      CLEAR     58  47  68 CALM      30.26R
WAYNESBORO*    CLEAR     60  50  69 CALM      30.25R

$$

WVZ021-048>050-054>055-210100-
EASTERN WEST VIRGINIA PANHANDLE

CITY           SKY/WX    TMP DP  RH WIND       PRES   REMARKS
MARTINSBURG    CLEAR     58  44  60 CALM      30.22R
PETERSBURG*    CLEAR     56  49  78 CALM      30.24S

$$

VAZ036>039-050-210100-
CENTRAL FOOTHILLS

CITY           SKY/WX    TMP DP  RH WIND       PRES   REMARKS
CHARLOTTESVILL CLEAR     65  53  65 CALM      30.23R
CULPEPER*      CLEAR     57  45  64 CALM      30.23R
ORANGE*        CLEAR     55  52  88 CALM      30.22R
GORDONSVILLE*  CLEAR     59  55  85 CALM      30.22R
WARRENTON*     CLEAR     52  42  69 CALM      30.22R

$$

VAZ055>057-210100-
NORTH AND CENTRAL PIEDMONT

CITY           SKY/WX    TMP DP  RH WIND       PRES   REMARKS
FREDERICKSBRG* CLEAR     59  53  79 CALM      30.21R
STAFFORD*      CLEAR     53  53  99 CALM      30.26R

$$

NCZ024-NYZ072-PAZ021-071-VAZ022-071-210100-
OTHER REGIONAL OBSERVATIONS

CITY           SKY/WX    TMP DP  RH WIND       PRES   REMARKS
NEW YORK CITY  CLEAR     68  36  30 CALM      30.18R
PHILADELPHIA   PTCLDY    68  37  32 W6        30.19R
PITTSBURGH     PTCLDY    57  41  55 CALM      30.23S
ROANOKE        CLEAR     64  53  67 CALM      30.25R
RICHMOND       PTCLDY    64  56  75 CALM      30.21R
RALEIGH        PTCLDY    63  54  72 CALM      30.23R

$$

ANZ530>537-210100-
MARINE OBSERVATIONS

STATION/POSITION TIME  TEMP    WIND        PRES
                       AIR SEA DIR/SP/G
                 (UTC) (F)     (DEG/KT/KT) (MB)
THOMAS PT LIGHT  0000   68 68  270/  2/  2   N/A
BALT KEY BRIDGE  2342   70     350/  4/  5 1022.9R
COVE POINT       2342   67      CALM  /  1 1023.6R
LEWISETTA        2342   65 66  250/  2/  2 1022.8R
SOLOMONS ISLAND  2342   64 70  330/  3/  3 1022.6R
PINEY POINT      2306           50/  4/  4   N/A

$$





USA.gov is the U.S. government's official web portal to all federal, state and local government web resources and services.